User: anonymous   Login
Location: Caltech
(34.1382°N, 118.1253°W)
Time: 16:20:23
(UTC-07:00)
Language:

ADEOS II - Orbit

View from above orbital plane
View from above orbital plane
View from above satellite
View from above satellite

Ground track
Ground track

The orbit data is extracted from the following two-line orbital elements,

1 27597U 02056A   17141.90344913 +.00000046 +00000-0 +35638-4 0  9999
2 27597 098.3671 112.5842 0002134 069.4902 290.6509 14.27285370751675
Epoch (UTC): 21 May 2017 21:40:58
Eccentricity: 0.0002134
inclination: 98.3671°
perigee height: 799 km
apogee height: 802 km
right ascension of ascending node: 112.5842°
argument of perigee: 69.4902°
revolutions per day: 14.27285370
mean anomaly at epoch: 290.6509°
orbit number at epoch: 75167

The dashed part of the orbit path shows where the satellite is in the earth's shadow,  

DLR